Weather History for Volk, WI

Change the Weather History Date:

Wednesday, April 2, 2014

  Actual Average Record
Temperature  
Mean Temperature 34 °F -  
Max Temperature 50 °F 48 °F 75 °F (1999)
Min Temperature 17 °F 32 °F 15 °F (2013)
Degree Days  
Heating Degree Days 32    
Moisture  
Dew Point 20 °F    
Average Humidity 67    
Maximum Humidity 100    
Minimum Humidity 28    
Precipitation  
Precipitation 0.00 in - - ()
Sea Level Pressure  
Sea Level Pressure 30.15 in    
Wind  
Wind Speed 6 mph (NE)    
Max Wind Speed 15 mph    
Max Gust Speed 22 mph    
Visibility 9 miles    
Events      
Averages and records for this station are not official NWS values.
T = Trace of Precipitation, MM = Missing Value Source: NWS Daily Summary

Daily Weather History Graph

Daily Weather History Graph

Search for Another Location

Airport:

Trip Planner

Search our weather history database for the weather conditions in past years. The results will help you decide how hot, cold, wet, or windy it might be!

Date:

Astronomy

Apr. 02, 2014 Rise Set
Actual Time 6:40 AM CDT 7:29 PM CDT
Civil Twilight 6:11 AM CDT 7:58 PM CDT
Nautical Twilight 5:36 AM CDT 8:33 PM CDT
Astronomical Twilight 5:00 AM CDT 9:09 PM CDT
Moon 8:19 AM CDT (4/2) 10:58 PM CDT (4/2)
Length of Visible Light 13h 47m
Length of Day
12h 48m
Waxing Crescent, 10% of the Moon is Illuminated
Apr 2
Waxing Crescent
Apr 7
First Quarter
Apr 15
Full
Apr 22
Last Quarter
Apr 29
New

Hourly Weather History & Observations

Time (CDT) Temp. Windchill Dew Point Humidity Pressure Visibility Wind Dir Wind Speed Gust Speed Precip Events Conditions
12:58 AM 24.3 °F 17.3 °F 22.6 °F 94% 30.13 in 10.0 mi WNW 5.8 mph - N/A   Clear
1:58 AM 21.6 °F 14.0 °F 21.4 °F 99% 30.14 in 10.0 mi WNW 5.8 mph - N/A   Clear
2:58 AM 21.6 °F - 21.4 °F 99% 30.16 in 10.0 mi WSW 2.3 mph - N/A   Clear
3:28 AM 21.2 °F 16.4 °F 21.2 °F 100% 30.11 in 9.0 mi West 3.5 mph - N/A   Clear
3:58 AM 20.5 °F - 20.3 °F 99% 30.16 in 5.0 mi NW 2.3 mph - N/A   Clear
4:03 AM 19.4 °F - 19.4 °F 100% 30.11 in 2.0 mi NNW 2.3 mph - N/A   Clear
4:08 AM 19.4 °F 14.3 °F 19.4 °F 100% 30.11 in 1.2 mi NW 3.5 mph - N/A   Clear
4:13 AM 19.4 °F 14.3 °F 17.6 °F 93% 30.11 in 2.0 mi NNW 3.5 mph - N/A   Clear
4:18 AM 19.4 °F 14.3 °F 19.4 °F 100% 30.11 in 7.0 mi NNW 3.5 mph - N/A   Clear
4:38 AM 19.4 °F 12.8 °F 17.6 °F 93% 30.11 in 8.0 mi NNW 4.6 mph - N/A   Clear
4:58 AM 18.5 °F 11.7 °F 18.3 °F 99% 30.15 in 10.0 mi NW 4.6 mph - N/A   Clear
5:58 AM 19.0 °F 12.3 °F 18.9 °F 99% 30.17 in 10.0 mi WNW 4.6 mph - N/A   Clear
6:03 AM 17.6 °F 10.7 °F 17.6 °F 100% 30.12 in 9.0 mi NW 4.6 mph - N/A   Clear
7:58 AM 24.8 °F - 24.8 °F 100% 30.24 in 10.0 mi NW 1.2 mph - N/A   Clear
8:58 AM 28.4 °F 22.2 °F 21.2 °F 74% 30.23 in 10.0 mi NE 5.8 mph - N/A   Clear
9:58 AM 32.0 °F 25.6 °F 17.6 °F 55% 30.23 in 10.0 mi East 6.9 mph - N/A   Partly Cloudy
10:58 AM 35.6 °F 29.2 °F 17.6 °F 48% 30.23 in 10.0 mi ESE 8.1 mph - N/A   Partly Cloudy
11:58 AM 39.2 °F 37.0 °F 19.4 °F 45% 30.22 in 10.0 mi Variable 3.5 mph - N/A   Partly Cloudy
12:58 PM 42.8 °F 39.3 °F 19.4 °F 39% 30.21 in 10.0 mi Variable 5.8 mph - N/A   Partly Cloudy
1:58 PM 46.4 °F 42.9 °F 19.4 °F 34% 30.18 in 10.0 mi East 6.9 mph - N/A   Scattered Clouds
2:58 PM 50.0 °F - 17.6 °F 28% 30.16 in 10.0 mi East 10.4 mph - N/A   Mostly Cloudy
3:58 PM 50.0 °F - 17.6 °F 28% 30.14 in 10.0 mi ESE 9.2 mph - N/A   Mostly Cloudy
4:58 PM 50.0 °F - 19.4 °F 30% 30.13 in 10.0 mi ENE 9.2 mph - N/A   Mostly Cloudy
5:58 PM 48.2 °F - 19.4 °F 32% 30.13 in 10.0 mi East 11.5 mph - N/A   Mostly Cloudy
6:58 PM 46.4 °F 40.7 °F 21.2 °F 37% 30.13 in 10.0 mi East 12.7 mph - N/A   Mostly Cloudy
7:58 PM 42.8 °F 37.0 °F 23.0 °F 46% 30.15 in 10.0 mi ESE 10.4 mph - N/A   Overcast
8:58 PM 41.0 °F 33.9 °F 23.0 °F 49% 30.16 in 10.0 mi East 12.7 mph - N/A   Overcast
9:58 PM 39.2 °F 31.2 °F 24.8 °F 56% 30.15 in 10.0 mi East 13.8 mph - N/A   Overcast
10:58 PM 39.2 °F 30.8 °F 24.8 °F 56% 30.15 in 10.0 mi East 15.0 mph - N/A   Overcast
11:41 PM 37.4 °F 29.3 °F 21.2 °F 52% 30.10 in 10.0 mi East 12.7 mph - N/A   Mostly Cloudy
11:43 PM 37.4 °F 29.8 °F 21.2 °F 52% 30.10 in 10.0 mi East 11.5 mph - N/A   Overcast
11:54 PM 37.4 °F 28.5 °F 21.2 °F 52% 30.09 in 10.0 mi East 15.0 mph 21.9 mph N/A   Overcast
11:57 PM 37.4 °F 28.5 °F 21.2 °F 52% 30.09 in 10.0 mi East 15.0 mph 21.9 mph N/A   Overcast
11:58 PM 37.4 °F 28.5 °F 21.2 °F 52% 30.12 in 10.0 mi East 15.0 mph 21.9 mph 0.00 in   Overcast